Location: A�t Lahcen
(32.8243°N, 5.4246°W)
Time: 01:59:00
(UTC+00:00)

Cosmos 2084 Rocket - Pass Details

Date: 27 January 2021
Orbit: 532 x 648 km, 62.8° (Epoch: 27 February)

Event Time Altitude Azimuth Distance (km) Brightness Sun altitude
Exits shadow 06:13:49 10° 332° (NNW) 1,943 5.7 -14.0°
Maximum altitude 06:18:13 78° 59° (ENE) 640 3.7 -13.1°
Drops below altitude 10° 06:22:48 10° 146° (SE) 2,011 6.9 -12.2°
Sets 06:25:07 0° 147° (SSE) 2,928 7.8 -11.7°
